Location: Unspecified
(0.0000°N, 0.0000°E)
Time: 06:45:30
(UTC+00:00)

Vanguard 2 - Pass Details

Date: 19 September 2019
Orbit: 554 x 2937 km, 32.9° (Epoch: 14 October)

Event Time Altitude Azimuth Distance (km) Brightness Sun altitude
Rises 20:03:45 0° 216° (SW) 5,667 12.4 -32.5°
Reaches altitude 10° 20:08:16 10° 203° (SSW) 5,003 11.8 -33.6°
Maximum altitude 20:20:16 26° 152° (SSE) 4,384 11.0 -36.6°
Enters shadow 20:20:39 26° 150° (SSE) 4,396 11.0 -36.7°
Drops below altitude 10° 20:33:52 10° 102° (ESE) 5,744 - -40.0°
Sets 20:39:28 0° 90° (E) 6,642 - -41.4°
